TimePDT,TemperatureF,Dew PointF,Humidity,Sea Level PressureIn,VisibilityMPH,Wind Direction,Wind SpeedMPH,Gust SpeedMPH,PrecipitationIn,Events,Conditions,WindDirDegrees,DateUTC
12:50 AM,77.0,27.0,16,29.88,10.0,West,10.4,-,N/A,,Clear,270,2013-07-17 07:50:00
1:50 AM,75.9,24.1,15,29.88,10.0,WSW,10.4,-,N/A,,Mostly Cloudy,250,2013-07-17 08:50:00
2:50 AM,73.0,26.1,17,29.89,10.0,West,9.2,-,N/A,,Clear,280,2013-07-17 09:50:00
3:50 AM,72.0,23.0,16,29.89,10.0,WSW,10.4,-,N/A,,Clear,250,2013-07-17 10:50:00
4:50 AM,70.0,26.1,19,29.90,10.0,West,10.4,-,N/A,,Clear,260,2013-07-17 11:50:00
5:50 AM,71.1,26.1,19,29.92,10.0,WSW,10.4,-,N/A,,Clear,240,2013-07-17 12:50:00
6:50 AM,73.0,26.1,17,29.94,10.0,WSW,12.7,-,N/A,,Clear,250,2013-07-17 13:50:00
7:50 AM,75.9,27.0,16,29.96,10.0,West,12.7,-,N/A,,Clear,270,2013-07-17 14:50:00
8:50 AM,81.0,27.0,14,29.96,10.0,West,13.8,-,N/A,,Clear,280,2013-07-17 15:50:00
9:50 AM,86.0,33.1,15,29.96,10.0,WNW,10.4,-,N/A,,Clear,290,2013-07-17 16:50:00
10:50 AM,90.0,33.1,13,29.95,10.0,WNW,10.4,-,N/A,,Clear,300,2013-07-17 17:50:00
11:50 AM,93.0,30.9,11,29.94,10.0,WNW,5.8,-,N/A,,Clear,300,2013-07-17 18:50:00
12:50 PM,97.0,28.0,9,29.94,10.0,North,6.9,-,N/A,,Clear,350,2013-07-17 19:50:00
1:50 PM,99.0,27.0,8,29.91,10.0,North,5.8,-,N/A,,Clear,10,2013-07-17 20:50:00
2:50 PM,100.0,26.1,7,29.89,10.0,North,4.6,-,N/A,,Clear,350,2013-07-17 21:50:00
3:50 PM,102.9,25.0,6,29.86,10.0,North,5.8,-,N/A,,Clear,10,2013-07-17 22:50:00
4:50 PM,102.9,21.9,6,29.84,10.0,NW,6.9,-,N/A,,Clear,320,2013-07-17 23:50:00
5:50 PM,102.9,21.0,5,29.82,10.0,NW,8.1,-,N/A,,Clear,320,2013-07-18 00:50:00
6:50 PM,102.0,21.0,6,29.82,10.0,WNW,8.1,-,N/A,,Clear,290,2013-07-18 01:50:00
7:50 PM,99.0,19.9,6,29.83,10.0,WSW,10.4,-,N/A,,Clear,240,2013-07-18 02:50:00
8:50 PM,95.0,21.9,7,29.85,10.0,SSW,10.4,-,N/A,,Clear,210,2013-07-18 03:50:00
9:50 PM,91.0,25.0,9,29.88,10.0,West,13.8,-,N/A,,Clear,270,2013-07-18 04:50:00
10:50 PM,86.0,28.0,12,29.90,10.0,West,11.5,-,N/A,,Clear,270,2013-07-18 05:50:00
11:50 PM,82.9,27.0,13,29.91,10.0,West,9.2,-,N/A,,Clear,260,2013-07-18 06:50:00